Lexington Weather

Lexington, Massachusetts, USA

70°F
8/17/2022 6:56pm 
  • Lexington Conditions: Overcast
  • Temperature: 69.6°F / 20.9°CColder 0.6°F than last hour.
  • Dew Point: 57.4°FDecreased 1.8°Fsince last hour.
  • Relative Humidity: 65%Decreased 3.0% since last hour.
  • Wind: Calm, 10-min avg: Calm, gust: 3 mph
  • Barometer: 29.85 in Steady
  • Visibility: 10 miles
  • Rain Today: 0.00 in
  •   

Regional Weather Roundup
for Boston, MA

        
000
ASUS41 KBOX 150410
RWRBOX

REGIONAL WEATHER ROUNDUP
NATIONAL WEATHER SERVICE BOSTON/NORTON MA
1200 AM EDT MON AUG 15 2022

NOTE:  "FAIR" INDICATES FEW OR NO CLOUDS BELOW 12,000 FEET WITH NO 
SIGNIFICANT WEATHER AND/OR OBSTRUCTIONS TO VISIBILITY.

MAZALL-150500-
EASTERN MASSACHUSETTS
  
CITY           SKY/WX    TMP DP  RH WIND       PRES   REMARKS
BOSTON         MOCLDY    70  57  63 SW8       30.03S                  
BEVERLY        PTCLDY    64  57  78 CALM      30.03R                  
LAWRENCE       PTCLDY    65  55  70 CALM      30.05S                  
BEDFORD        PTCLDY    66  55  67 SW6       30.02F                  
BLUE HILL      NOT AVBL                                               
NORWOOD        PTCLDY    61  55  81 CALM      30.04S                  
MARSHFIELD     MOCLDY    64  57  77 SW6       30.04S                  
PLYMOUTH       MOCLDY    66  57  72 CALM      30.05S                  
TAUNTON          N/A    N/A N/A N/A MISG      30.04S                  
NEW BEDFORD    MOCLDY    62  59  90 CALM      30.04S                  
$$

MAZALL-150500-
CAPE COD AND THE ISLANDS
  
CITY           SKY/WX    TMP DP  RH WIND       PRES   REMARKS
FALMOUTH       CLEAR     63  59  88 CALM      30.05S                  
HYANNIS        MOCLDY    62  57  83 CALM      30.04S                  
CHATHAM        MOCLDY    67  63  87 CALM      30.06S                  
NANTUCKET      MOCLDY    67  63  87 S5        30.05S                  
MARTHAS VNYRD  MOCLDY    58  57  97 CALM      30.05S                  
$$
 
MAZALL-150500-
CENTRAL AND WESTERN MASSACHUSETTS
  
CITY           SKY/WX    TMP DP  RH WIND       PRES   REMARKS
WORCESTER      CLEAR     64  52  64 W8        30.07S                  
FITCHBURG      CLEAR     60  50  69 CALM      30.05S                  
ORANGE         CLEAR     59  54  83 CALM      30.06S                  
SPRINGFIELD    CLEAR     58  54  84 CALM      30.02S                  
WESTFIELD      CLEAR     61  53  75 CALM      30.04                   
NORTH ADAMS    PTCLDY    55  52  89 SE3       30.06R                  
PITTSFIELD     CLEAR     57  51  80 CALM      30.06R                  
$$
 
RIZALL-150500-
RHODE ISLAND
  
CITY           SKY/WX    TMP DP  RH WIND       PRES   REMARKS
PROVIDENCE     MOCLDY    66  57  72 NW6       30.05S                  
NEWPORT        MOCLDY    67  60  78 CALM      30.04F                  
BLOCK ISLAND   MOCLDY    67  58  72 W5        30.05F                  
SMITHFIELD     PTCLDY    62  57  83 CALM      30.06S                  
WESTERLY       MOCLDY    64  58  80 CALM      30.05S                  
$$
 
CTZALL-150500-
CONNECTICUT
  
CITY           SKY/WX    TMP DP  RH WIND       PRES   REMARKS
BRADLEY INTL   PTCLDY    66  54  65 CALM      30.04S                  
HARTFORD       CLEAR     65  57  75 S3        30.04R                  
BRIDGEPORT     CLEAR     72  59  63 SW7       30.04S                  
DANBURY        CLEAR     65  55  70 SE3       30.06R                  
GROTON         MOCLDY    63  58  83 N3        30.04S                  
NEW HAVEN      PTCLDY    74  59  59 VRB3      30.04S                  
CHESTER        FAIR      64  55  72 CALM      30.05S                  
MERIDEN        CLEAR     59  53  80 CALM      30.04S                  
WILLIMANTIC    CLEAR     60  55  83 CALM      30.05S                  
OXFORD         CLEAR     61  55  81 CALM      30.07S                  
$$

MEZ002-015-021-024-NHZ003-005-008-011-012-014-VTZ005-008-150500-
NORTHERN NEW ENGLAND
  
CITY           SKY/WX    TMP DP  RH WIND       PRES   REMARKS
PORTLAND ME    PTCLDY    62  53  72 CALM      30.04S                  
BANGOR ME      PTCLDY    62  57  83 CALM      30.03R                  
CONCORD NH     CLEAR     58  53  84 CALM      30.04S                  
MANCHESTER NH  MOCLDY    62  53  72 CALM      30.02S                  
NASHUA NH      CLEAR     62  57  83 NW6       30.04S                  
PORTSMOUTH NH  MOCLDY    63  53  69 CALM      30.03S                  
JAFFREY NH     CLEAR     56  49  77 VRB3      30.07S                  
KEENE NH       CLEAR     55  54  96 S6          N/A                   
BURLINGTON VT  PTCLDY    60  54  80 CALM      30.04S                  
MT. WASHINGTON MOCLDY    46  41  81 S5          N/A                   
$$

NYZ052-076-150500-
EASTERN NEW YORK
  
CITY           SKY/WX    TMP DP  RH WIND       PRES   REMARKS
ALBANY         PTCLDY    63  53  70 CALM      30.03R                  
NEW YORK CITY  PTCLDY    73  54  51 S9        30.03R                  
$$
 
ANZALL-150500-
MARINE OBSERVATIONS
  
STATION/POSITION TIME  TEMP    WIND        PRES    VSBY  WAVE
                       AIR SEA DIR/SP/G                  HT/PER
                 (UTC) (F)     (DEG/KT/KT) (MB)    (MI)  (FT/S)
BOSTON BUOY      NOT AVBL
BUZZARDS BAY     NOT AVBL
NANTUCKET SOUND  NOT AVBL
MASS BAY-STELLWA NOT AVBL
ISLE OF SHOALS   NOT AVBL
S OF BLOCK IS    NOT AVBL
$$

......................KEY.........................
  SKY/WX - SKY CONDITION/PRESENT WEATHER
  TMP    - TEMPERATURE IN FAHRENHEIT
  DWPT   - DEWPOINT IN FAHRENHEIT
  RH     - RELATIVE HUMIDITY IN PERCENT
  WIND   - DIRECTION AND SPEED IN MPH
  PRES   - MEAN SEA LEVEL PRESSURE IN INCHES OF HG
  WCI    - WIND CHILL INDEX
  VSB    - VISIBILITY IN MILES
  HX     - HEAT INDEX
  TC     - TEMPERATURE IN CELSIUS
  VRB    - VARIABLE WIND DIRECTION
  N/A    - NOT AVAILABLE
  
      

Other recent Regional Weather Roundups

Wed Aug 17, 6:10pm

Wed Aug 17, 5:10pm

Wed Aug 17, 4:10pm

Wed Aug 17, 3:10pm

Wed Aug 17, 2:10pm

Wed Aug 17, 1:10pm

Wed Aug 17, 12:10pm

Wed Aug 17, 11:10am

Wed Aug 17, 10:10am

Wed Aug 17, 9:10am

Wed Aug 17, 8:10am

Wed Aug 17, 7:10am

Wed Aug 17, 6:10am

Wed Aug 17, 5:10am

Wed Aug 17, 4:10am

Wed Aug 17, 3:10am

Wed Aug 17, 2:10am

Wed Aug 17, 1:10am

Wed Aug 17, 12:10am

Tue Aug 16, 11:10pm

Tue Aug 16, 10:10pm

Tue Aug 16, 9:10pm

Tue Aug 16, 8:10pm

Tue Aug 16, 7:10pm

Tue Aug 16, 6:10pm

Tue Aug 16, 5:10pm

Tue Aug 16, 4:10pm

Tue Aug 16, 3:10pm

Tue Aug 16, 2:10pm

Tue Aug 16, 1:10pm

Tue Aug 16, 12:10pm

Tue Aug 16, 11:10am

Tue Aug 16, 10:10am

Tue Aug 16, 9:10am

Tue Aug 16, 8:10am

Tue Aug 16, 7:10am

Tue Aug 16, 6:10am

Tue Aug 16, 5:10am

Tue Aug 16, 4:10am

Tue Aug 16, 3:10am

Tue Aug 16, 2:10am

Tue Aug 16, 1:10am

Tue Aug 16, 12:10am

Mon Aug 15, 11:10pm

Mon Aug 15, 10:10pm

Mon Aug 15, 9:10pm

Mon Aug 15, 8:10pm

Mon Aug 15, 7:10pm

Mon Aug 15, 6:10pm

Mon Aug 15, 5:10pm

Mon Aug 15, 4:10pm

Mon Aug 15, 3:10pm

Mon Aug 15, 2:10pm

Mon Aug 15, 1:10pm

Mon Aug 15, 12:10pm

Mon Aug 15, 11:10am

Mon Aug 15, 10:10am

Mon Aug 15, 9:10am

Mon Aug 15, 8:10am

Mon Aug 15, 7:10am

Mon Aug 15, 6:10am

Mon Aug 15, 5:10am

Mon Aug 15, 4:10am

Mon Aug 15, 3:10am

Mon Aug 15, 2:10am

Mon Aug 15, 1:10am

Sun Aug 14, 11:10pm

Sun Aug 14, 10:10pm

Sun Aug 14, 9:10pm

Sun Aug 14, 8:10pm

Sun Aug 14, 7:10pm

Sun Aug 14, 6:10pm

Sun Aug 14, 5:10pm

Sun Aug 14, 4:10pm

Sun Aug 14, 3:10pm

Sun Aug 14, 2:10pm

Sun Aug 14, 1:10pm

Sun Aug 14, 12:10pm

Sun Aug 14, 11:10am

Sun Aug 14, 10:10am

Sun Aug 14, 9:10am

Sun Aug 14, 8:10am

Sun Aug 14, 7:10am

Sun Aug 14, 6:10am

Sun Aug 14, 5:10am

Sun Aug 14, 4:10am

Sun Aug 14, 3:10am

Sun Aug 14, 2:10am

Sun Aug 14, 1:10am

Sun Aug 14, 12:10am

Sat Aug 13, 11:10pm

Sat Aug 13, 10:10pm

Sat Aug 13, 9:10pm

Sat Aug 13, 8:10pm

Sat Aug 13, 7:10pm

Sat Aug 13, 6:10pm

Sat Aug 13, 5:10pm

Sat Aug 13, 4:10pm

Sat Aug 13, 3:10pm

Sat Aug 13, 2:10pm

Sat Aug 13, 1:10pm

Sat Aug 13, 12:10pm

Sat Aug 13, 11:10am

Sat Aug 13, 10:10am

Sat Aug 13, 9:10am

Sat Aug 13, 8:10am

Sat Aug 13, 7:10am

Sat Aug 13, 6:10am

Sat Aug 13, 5:10am

Sat Aug 13, 4:10am

Sat Aug 13, 3:10am

Sat Aug 13, 2:10am

Sat Aug 13, 1:10am

Sat Aug 13, 12:10am

Fri Aug 12, 11:10pm

Fri Aug 12, 10:10pm

Fri Aug 12, 9:10pm

Fri Aug 12, 8:10pm

Fri Aug 12, 7:10pm

Fri Aug 12, 6:10pm

Fri Aug 12, 5:10pm

Fri Aug 12, 4:10pm

Fri Aug 12, 3:10pm

Fri Aug 12, 2:10pm

Fri Aug 12, 1:10pm

Fri Aug 12, 12:10pm

Fri Aug 12, 11:10am

Fri Aug 12, 10:10am

Fri Aug 12, 9:10am

Fri Aug 12, 8:10am

Fri Aug 12, 7:10am

Fri Aug 12, 6:10am

Fri Aug 12, 5:10am

Fri Aug 12, 4:10am

Fri Aug 12, 3:10am

Fri Aug 12, 2:10am

Fri Aug 12, 1:10am

Fri Aug 12, 12:10am

Thu Aug 11, 11:10pm

Thu Aug 11, 10:10pm

Thu Aug 11, 9:10pm

Thu Aug 11, 8:10pm

Thu Aug 11, 7:10pm

Thu Aug 11, 6:10pm

Thu Aug 11, 5:10pm

Thu Aug 11, 4:10pm

Thu Aug 11, 3:10pm

Thu Aug 11, 2:10pm

Thu Aug 11, 1:10pm

Thu Aug 11, 12:10pm

Thu Aug 11, 11:10am

Thu Aug 11, 10:10am

Thu Aug 11, 9:10am

Thu Aug 11, 8:10am

Thu Aug 11, 7:10am

Thu Aug 11, 6:10am

Thu Aug 11, 5:10am

Thu Aug 11, 4:10am

Thu Aug 11, 3:10am

Thu Aug 11, 2:10am

Thu Aug 11, 1:10am

Thu Aug 11, 12:10am

Wed Aug 10, 11:10pm

Wed Aug 10, 10:10pm

Wed Aug 10, 9:10pm

Wed Aug 10, 8:10pm

Wed Aug 10, 7:10pm

Meta data:

ID: 77b658dc-667e-4605-aa3e-fd531a810b48
Link: https://api.weather.gov/products/77b658dc-667e-4605-aa3e-fd531a810b48